Terminal Aerodrome Forecast
Issued by NWS Huntsville, AL

Home | Current Version | Previous Version | Text Only | Print | Product List | Glossary On
Versions: 1 2 3 4 5 6 7 8 9 10 11 12 13 14 15 16 17 18 19 20 21 22 23 24 25 26 27 28 29 30 31
000
FTUS44 KHUN 160520
TAFMSL
TAF
KMSL 160520Z 1606/1706 00000KT P6SM BKN150
     FM161000 00000KT 3SM BR FEW005 BKN150
     FM161400 31006KT P6SM SCT025 BKN250
     FM162200 VRB03KT P6SM SCT120 BKN250=

USA.gov is the U.S. government's official web portal to all federal, state and local government web resources and services.